timestamp,surface_pressure_avg,surface_temp_avg,battery_voltage,lat,long
2017-12-30 00:00:00+00:00,276.0231,3.9,12.81,47.84626,-54.09684
2017-12-30 00:10:00+00:00,263.5664,3.9,12.73,47.84626,-54.09684
2017-12-30 00:20:00+00:00,255.6781,3.9,12.81,47.84626,-54.09684
2017-12-30 00:30:00+00:00,252.9181,3.9,12.81,47.84626,-54.09684
2017-12-30 00:40:00+00:00,247.2631,3.8,12.81,47.84626,-54.09684
2017-12-30 00:50:00+00:00,239.3997,3.7,12.81,47.84626,-54.09684
2017-12-30 01:00:00+00:00,235.2214,3.7,12.73,47.84626,-54.09684
2017-12-30 01:10:00+00:00,234.5998,3.7,12.73,47.84626,-54.09684
2017-12-30 01:20:00+00:00,233.7831,3.7,12.81,47.84626,-54.09684
2017-12-30 01:30:00+00:00,231.7248,3.69,12.81,47.84626,-54.09684
2017-12-30 01:40:00+00:00,230.5281,3.67,12.81,47.84626,-54.09684
2017-12-30 01:50:00+00:00,232.3164,3.65,12.81,47.84626,-54.09684
2017-12-30 02:00:00+00:00,234.1781,3.65,12.73,47.84626,-54.09684
2017-12-30 02:10:00+00:00,231.2881,3.61,12.73,47.84626,-54.09684
2017-12-30 02:20:00+00:00,227.8914,3.6,12.81,47.84626,-54.09684
2017-12-30 02:30:00+00:00,227.6048,3.6,12.81,47.84626,-54.09684
2017-12-30 02:40:00+00:00,227.0797,3.6,12.81,47.84626,-54.09684
2017-12-30 02:50:00+00:00,225.4714,3.6,12.81,47.84626,-54.09684
2017-12-30 03:00:00+00:00,229.3198,3.6,12.73,47.84626,-54.09684
2017-12-30 03:10:00+00:00,235.0181,3.63,12.73,47.84626,-54.09684
2017-12-30 03:20:00+00:00,236.4048,3.68,12.81,47.84626,-54.09684
2017-12-30 03:30:00+00:00,238.1014,3.7,12.73,47.84626,-54.09684
2017-12-30 03:40:00+00:00,242.5781,3.7,12.81,47.84626,-54.09684
2017-12-30 03:50:00+00:00,246.2947,3.74,12.81,47.84626,-54.09684
2017-12-30 04:00:00+00:00,248.5148,3.76,12.73,47.84626,-54.09684
2017-12-30 04:10:00+00:00,252.123,3.72,12.65,47.84626,-54.09684
2017-12-30 04:20:00+00:00,256.6764,3.71,12.73,47.84626,-54.09684
2017-12-30 04:30:00+00:00,259.5764,3.7,12.73,47.84626,-54.09684
2017-12-30 04:40:00+00:00,262.6547,3.72,12.81,47.84626,-54.09684
2017-12-30 04:50:00+00:00,267.6914,3.77,12.81,47.84626,-54.09684
2017-12-30 05:00:00+00:00,273.9664,3.79,12.73,47.84626,-54.09684
2017-12-30 05:10:00+00:00,276.5364,3.7,12.65,47.84626,-54.09684
2017-12-30 05:20:00+00:00,278.6864,3.7,12.73,47.84626,-54.09684
2017-12-30 05:30:00+00:00,285.3781,3.83,12.73,47.84626,-54.09684
2017-12-30 05:40:00+00:00,298.0547,3.99,12.73,47.84626,-54.09684
2017-12-30 05:50:00+00:00,305.0414,3.91,12.73,47.84626,-54.09684
2017-12-30 06:00:00+00:00,306.438,3.4,12.65,47.84626,-54.09684
2017-12-30 06:10:00+00:00,312.3497,3.36,12.65,47.84626,-54.09684
2017-12-30 06:20:00+00:00,321.778,3.94,12.73,47.84626,-54.09684
2017-12-30 06:30:00+00:00,326.6996,4.0,12.73,47.84626,-54.09684
2017-12-30 06:40:00+00:00,330.953,4.0,12.73,47.84626,-54.09684
2017-12-30 06:50:00+00:00,340.418,4.0,12.73,47.84626,-54.09684
2017-12-30 07:00:00+00:00,345.303,4.0,12.65,47.84626,-54.09684
2017-12-30 07:10:00+00:00,347.353,4.04,12.65,47.84626,-54.09684
2017-12-30 07:20:00+00:00,354.9463,4.0,12.73,47.84626,-54.09684
2017-12-30 07:30:00+00:00,364.6346,4.01,12.73,47.84626,-54.09684
2017-12-30 07:40:00+00:00,365.6796,4.02,12.73,47.84626,-54.09684
2017-12-30 07:50:00+00:00,367.4146,4.0,12.73,47.84626,-54.09684
2017-12-30 08:00:00+00:00,368.5379,4.0,12.65,47.84626,-54.09684
2017-12-30 08:10:00+00:00,367.543,4.0,12.65,47.84626,-54.09684
2017-12-30 08:20:00+00:00,360.5563,4.0,12.73,47.84626,-54.09684
2017-12-30 08:30:00+00:00,352.9646,4.0,12.73,47.84626,-54.09684
2017-12-30 08:40:00+00:00,353.1462,4.0,12.73,47.84626,-54.09684
2017-12-30 08:50:00+00:00,365.3812,4.0,12.73,47.84626,-54.09684
2017-12-30 09:00:00+00:00,386.2413,3.98,12.65,47.84626,-54.09684
2017-12-30 09:10:00+00:00,406.1912,3.98,12.65,47.84626,-54.09684
2017-12-30 09:20:00+00:00,404.8296,3.99,12.73,47.84626,-54.09684
2017-12-30 09:30:00+00:00,388.3913,3.9,12.73,47.84626,-54.09684
2017-12-30 09:40:00+00:00,381.9379,3.9,12.73,47.84626,-54.09684
2017-12-30 09:50:00+00:00,381.2845,3.9,12.73,47.84626,-54.09684
2017-12-30 10:00:00+00:00,371.3596,3.54,12.65,47.84626,-54.09684
2017-12-30 10:10:00+00:00,357.1447,3.3,12.65,47.84626,-54.09684
2017-12-30 10:20:00+00:00,350.738,3.26,12.65,47.84626,-54.09684
2017-12-30 10:30:00+00:00,341.793,3.37,12.65,47.84626,-54.09684
2017-12-30 10:40:00+00:00,339.8713,3.31,12.73,47.84626,-54.09684
2017-12-30 10:50:00+00:00,340.6196,3.34,12.73,47.84626,-54.09684
2017-12-30 11:00:00+00:00,347.348,3.4,12.65,47.84626,-54.09684
2017-12-30 11:10:00+00:00,347.5696,3.5,12.65,47.84626,-54.09684
2017-12-30 11:20:00+00:00,344.4147,3.4,12.65,47.84626,-54.09684
2017-12-30 11:30:00+00:00,324.0847,3.34,12.65,47.84626,-54.09684
2017-12-30 11:40:00+00:00,315.1414,3.4,12.73,47.84626,-54.09684
2017-12-30 11:50:00+00:00,305.7046,3.41,12.73,47.84626,-54.09684
2017-12-30 12:00:00+00:00,293.3514,3.45,12.65,47.84626,-54.09684
2017-12-30 12:10:00+00:00,278.3047,3.4,12.57,47.84626,-54.09684
2017-12-30 12:20:00+00:00,285.7647,3.4,12.65,47.84626,-54.09684
2017-12-30 12:30:00+00:00,281.098,3.4,12.65,47.84626,-54.09684
2017-12-30 12:40:00+00:00,277.5098,3.3,12.73,47.84626,-54.09684
2017-12-30 12:50:00+00:00,273.5247,3.3,12.73,47.84626,-54.09684
2017-12-30 13:00:00+00:00,273.113,3.3,12.65,47.84626,-54.09684
2017-12-30 13:10:00+00:00,255.4414,3.3,12.65,47.84626,-54.09684
2017-12-30 13:20:00+00:00,239.2047,3.26,12.73,47.84626,-54.09684
2017-12-30 13:30:00+00:00,237.2864,3.29,12.73,47.84626,-54.09684
2017-12-30 13:40:00+00:00,234.4964,3.28,12.73,47.84626,-54.09684
2017-12-30 13:50:00+00:00,224.4364,3.1,12.73,47.84626,-54.09684
2017-12-30 14:00:00+00:00,223.9247,3.02,12.65,47.84626,-54.09684
2017-12-30 14:10:00+00:00,220.5032,3.02,12.65,47.84626,-54.09684
2017-12-30 14:20:00+00:00,215.0681,3.08,12.73,47.84626,-54.09684
2017-12-30 14:30:00+00:00,217.2247,3.1,12.73,47.84626,-54.09684
2017-12-30 14:40:00+00:00,217.4831,3.1,12.73,47.84626,-54.09684
2017-12-30 14:50:00+00:00,217.6781,3.1,12.73,47.84626,-54.09684
2017-12-30 15:00:00+00:00,215.6031,3.1,12.65,47.84626,-54.09684
2017-12-30 15:10:00+00:00,216.6781,3.19,12.65,47.84626,-54.09684
2017-12-30 15:20:00+00:00,219.4648,3.2,12.73,47.84626,-54.09684
2017-12-30 15:30:00+00:00,216.8748,3.2,12.73,47.84626,-54.09684
2017-12-30 15:40:00+00:00,215.1431,3.2,12.81,47.84626,-54.09684
2017-12-30 15:50:00+00:00,217.9148,3.2,12.81,47.84626,-54.09684
2017-12-30 16:00:00+00:00,219.2365,3.26,12.73,47.84626,-54.09684
2017-12-30 16:10:00+00:00,215.6664,3.28,12.65,47.84626,-54.09684
2017-12-30 16:20:00+00:00,215.8931,3.29,12.81,47.84626,-54.09684
2017-12-30 16:30:00+00:00,220.9915,3.29,12.81,47.84626,-54.09684
2017-12-30 16:40:00+00:00,221.4731,3.29,12.81,47.84626,-54.09684
2017-12-30 16:50:00+00:00,218.4648,3.25,12.81,47.84626,-54.09684
2017-12-30 17:00:00+00:00,223.1181,3.2,12.81,47.84626,-54.09684
2017-12-30 17:10:00+00:00,235.9448,3.2,12.73,47.84626,-54.09684
2017-12-30 17:20:00+00:00,241.0397,3.25,12.81,47.84626,-54.09684
2017-12-30 17:30:00+00:00,240.5747,3.29,12.81,47.84626,-54.09684
2017-12-30 17:40:00+00:00,248.5814,3.2,12.89,47.84626,-54.09684
2017-12-30 17:50:00+00:00,265.0731,3.2,12.89,47.84626,-54.09684
2017-12-30 18:00:00+00:00,267.7364,3.2,12.81,47.84626,-54.09684
2017-12-30 18:10:00+00:00,263.573,3.2,12.73,47.84626,-54.09684
2017-12-30 18:20:00+00:00,272.7914,3.2,12.81,47.84626,-54.09684
2017-12-30 18:30:00+00:00,285.8264,3.26,12.81,47.84626,-54.09684
2017-12-30 18:40:00+00:00,285.633,3.29,12.81,47.84626,-54.09684
2017-12-30 18:50:00+00:00,287.8547,3.2,12.81,47.84626,-54.09684
2017-12-30 19:00:00+00:00,304.8763,3.2,12.73,47.84626,-54.09684
2017-12-30 19:10:00+00:00,317.1246,3.2,12.65,47.84626,-54.09684
2017-12-30 19:20:00+00:00,314.9747,3.2,12.73,47.84626,-54.09684
2017-12-30 19:30:00+00:00,318.6114,3.2,12.65,47.84626,-54.09684
2017-12-30 19:40:00+00:00,326.0031,3.2,12.73,47.84626,-54.09684
2017-12-30 19:50:00+00:00,326.718,3.21,12.73,47.84626,-54.09684
2017-12-30 20:00:00+00:00,325.6364,3.31,12.65,47.84626,-54.09684
2017-12-30 20:10:00+00:00,331.9563,3.39,12.65,47.84626,-54.09684
2017-12-30 20:20:00+00:00,333.5212,3.39,12.65,47.84626,-54.09684
2017-12-30 20:30:00+00:00,333.778,3.39,12.65,47.84626,-54.09684
2017-12-30 20:40:00+00:00,340.6896,3.38,12.65,47.84626,-54.09684
2017-12-30 20:50:00+00:00,346.2997,3.4,12.65,47.84626,-54.09684
2017-12-30 21:00:00+00:00,346.8947,3.41,12.65,47.84626,-54.09684
2017-12-30 21:10:00+00:00,346.9213,3.4,12.57,47.84626,-54.09684
2017-12-30 21:20:00+00:00,346.8113,3.4,12.65,47.84626,-54.09684
2017-12-30 21:30:00+00:00,346.133,3.39,12.65,47.84626,-54.09684
2017-12-30 21:40:00+00:00,351.4097,3.6,12.65,47.84626,-54.09684
2017-12-30 21:50:00+00:00,351.5046,3.54,12.65,47.84626,-54.09684
2017-12-30 22:00:00+00:00,345.083,3.3,12.65,47.84626,-54.09684
2017-12-30 22:10:00+00:00,346.2746,3.31,12.57,47.84626,-54.09684
2017-12-30 22:20:00+00:00,349.4064,3.38,12.65,47.84626,-54.09684
2017-12-30 22:30:00+00:00,341.7429,3.35,12.65,47.84626,-54.09684
2017-12-30 22:40:00+00:00,335.528,3.3,12.65,47.84626,-54.09684
2017-12-30 22:50:00+00:00,339.0497,3.29,12.65,47.84626,-54.09684
2017-12-30 23:00:00+00:00,332.7247,3.28,12.65,47.84626,-54.09684
2017-12-30 23:10:00+00:00,318.298,3.06,12.57,47.84626,-54.09684
2017-12-30 23:20:00+00:00,310.4446,3.1,12.65,47.84626,-54.09684
2017-12-30 23:30:00+00:00,302.4997,3.15,12.65,47.84626,-54.09684
2017-12-30 23:40:00+00:00,287.3148,3.2,12.65,47.84626,-54.09684
2017-12-30 23:50:00+00:00,274.058,3.2,12.65,47.84626,-54.09684
